Location: Unspecified
(51.0950°N, 12.9690°E)
Time: 06:57:19
(UTC+00:00)

ATLAS 3B R/B - Pass Details

Date: 24 May 2022
Orbit: 976 x 1218 km, 63.8° (Epoch: 20 June)

Event Time Altitude Azimuth Distance (km) Brightness Sun altitude
Rises 22:32:18 0° 314° (NW) 3,965 6.5 -17.6°
Reaches altitude 10° 22:35:07 10° 307° (NW) 3,037 5.7 -17.7°
Maximum altitude 22:41:41 38° 243° (WSW) 1,729 3.6 -17.8°
Enters shadow 22:45:18 24° 195° (SSW) 2,236 3.8 -17.9°
